QPF
0.00 0.01 0.02 0.01 0.01 0.00 0.00 0.00 0.01 0.01 0.01 0.01 0.02 0.02 0.03 0.03 0.02 0.01 0.02 0.02 0.01 0.00 0.00 0.01 0.00 0.00 0.00 0.00 0.00 0.00 0.00 0.00 0.00 0.00 0.01 0.01 0.01 0.01 0.01 0.01 0.00 0.01 0.01
0.00 0.01 0.02 0.01 0.01 0.01 0.00 0.00 0.01 0.01 0.01 0.01 0.02 0.03 0.03 0.03 0.02 0.02 0.02 0.01 0.01 0.00 0.00 0.00 0.00 0.00 0.00 0.00 0.00 0.00 0.00 0.00 0.00 0.00 0.00 0.00 0.01 0.01 0.01 0.01 0.01 0.01 0.01
0.00 0.01 0.01 0.01 0.01 0.01 0.00 0.00 0.01 0.01 0.00 0.01 0.02 0.03 0.03 0.03 0.03 0.03 0.03 0.01 0.00 0.00 0.00 0.00 0.00 0.00 0.00 0.00 0.00 0.00 0.00 0.00 0.00 0.00 0.00 0.00 0.00 0.01 0.01 0.01 0.01 0.01 0.01
0.00 0.01 0.01 0.01 0.01 0.01 0.00 0.00 0.01 0.01 0.00 0.01 0.01 0.02 0.02 0.02 0.02 0.02 0.01 0.00 0.00 0.00 0.00 0.00 0.00 0.00 0.00 0.00 0.00 0.00 0.00 0.00 0.00 0.00 0.00 0.00 0.00 0.00 0.00 0.00 0.01 0.01 0.01
0.01 0.01 0.01 0.01 0.01 0.00 0.00 0.01 0.01 0.01 0.01 0.01 0.01 0.01 0.02 0.02 0.01 0.01 0.00 0.00 0.00 0.00 0.00 0.00 0.00 0.00 0.00 0.00 0.00 0.00 0.00 0.00 0.00 0.00 0.00 0.00 0.00 0.00 0.00 0.00 0.00 0.00 0.00
0.01 0.01 0.02 0.01 0.00 0.00 0.01 0.01 0.01 0.01 0.01 0.01 0.01 0.01 0.01 0.01 0.01 0.00 0.00 0.00 0.00 0.00 0.00 0.00 0.00 0.00 0.00 0.00 0.00 0.00 0.00 0.00 0.00 0.00 0.00 0.00 0.00 0.00 0.00 0.00 0.00 0.00 0.00
0.01 0.02 0.02 0.01 0.00 0.00 0.01 0.01 0.01 0.01 0.00 0.01 0.01 0.01 0.01 0.00 0.00 0.00 0.00 0.00 0.00 0.00 0.00 0.00 0.00 0.00 0.00 0.00 0.00 0.00 0.00 0.00 0.00 0.00 0.00 0.00 0.00 0.00 0.00 0.00 0.00 0.00 0.00
0.01 0.02 0.03 0.01 0.01 0.01 0.01 0.02 0.01 0.01 0.01 0.00 0.01 0.00 0.00 0.00 0.00 0.00 0.00 0.00 0.00 0.00 0.00 0.00 0.00 0.00 0.00 0.00 0.00 0.00 0.00 0.00 0.00 0.00 0.00 0.00 0.00 0.00 0.00 0.00 0.00 0.00 0.00
0.03 0.03 0.03 0.02 0.01 0.01 0.01 0.01 0.01 0.01 0.01 0.00 0.00 0.00 0.00 0.00 0.00 0.00 0.00 0.00 0.00 0.00 0.00 0.00 0.00 0.00 0.00 0.00 0.00 0.00 0.00 0.00 0.00 0.00 0.00 0.00 0.00 0.00 0.00 0.00 0.00 0.00 0.00
0.05 0.04 0.02 0.02 0.01 0.01 0.01 0.01 0.01 0.01 0.00 0.00 0.00 0.00 0.00 0.00 0.00 0.00 0.00 0.00 0.00 0.00 0.00 0.00 0.00 0.00 0.00 0.00 0.00 0.00 0.00 0.00 0.00 0.00 0.00 0.00 0.00 0.00 0.00 0.00 0.00 0.00 0.00
0.09 0.05 0.03 0.02 0.01 0.01 0.01 0.01 0.01 0.01 0.01 0.00 0.00 0.00 0.00 0.00 0.00 0.00 0.00 0.00 0.00 0.00 0.00 0.00 0.00 0.00 0.00 0.00 0.00 0.00 0.00 0.00 0.00 0.00 0.00 0.00 0.00 0.00 0.00 0.00 0.00 0.00 0.00
0.10 0.05 0.04 0.03 0.01 0.01 0.01 0.01 0.01 0.01 0.01 0.00 0.00 0.00 0.00 0.00 0.00 0.00 0.00 0.00 0.00 0.00 0.00 0.00 0.00 0.00 0.00 0.00 0.00 0.00 0.00 0.00 0.00 0.00 0.00 0.00 0.00 0.00 0.00 0.00 0.00 0.00 0.00
0.14 0.10 0.06 0.04 0.01 0.00 0.00 0.00 0.01 0.01 0.00 0.00 0.00 0.00 0.00 0.00 0.00 0.00 0.00 0.00 0.00 0.00 0.00 0.00 0.00 0.00 0.00 0.00 0.00 0.00 0.00 0.00 0.00 0.00 0.00 0.00 0.00 0.00 0.00 0.00 0.00 0.00 0.00
0.17 0.14 0.12 0.07 0.02 0.01 0.00 0.00 0.00 0.00 0.00 0.00 0.00 0.00 0.00 0.00 0.00 0.00 0.00 0.00 0.00 0.00 0.00 0.00 0.00 0.00 0.00 0.00 0.00 0.00 0.00 0.00 0.00 0.00 0.00 0.00 0.00 0.00 0.00 0.00 0.00 0.01 0.01
0.15 0.15 0.12 0.09 0.05 0.03 0.01 0.00 0.00 0.00 0.00 0.00 0.00 0.00 0.00 0.00 0.00 0.00 0.00 0.00 0.00 0.00 0.00 0.00 0.00 0.00 0.00 0.00 0.00 0.00 0.00 0.00 0.00 0.00 0.00 0.00 0.00 0.00 0.00 0.00 0.01 0.01 0.02
0.13 0.11 0.12 0.10 0.08 0.05 0.03 0.01 0.00 0.00 0.00 0.00 0.00 0.00 0.00 0.00 0.00 0.00 0.00 0.00 0.00 0.00 0.00 0.00 0.00 0.00 0.00 0.00 0.00 0.00 0.00 0.00 0.00 0.00 0.00 0.00 0.00 0.00 0.00 0.00 0.01 0.02 0.03
0.14 0.12 0.10 0.10 0.11 0.08 0.06 0.04 0.03 0.01 0.00 0.00 0.00 0.00 0.00 0.00 0.00 0.00 0.00 0.00 0.00 0.00 0.00 0.00 0.00 0.00 0.00 0.00 0.00 0.00 0.00 0.00 0.00 0.00 0.00 0.00 0.00 0.00 0.00 0.00 0.01 0.02 0.03
0.21 0.19 0.16 0.11 0.11 0.09 0.07 0.07 0.05 0.03 0.02 0.01 0.00 0.00 0.00 0.00 0.00 0.00 0.00 0.00 0.00 0.00 0.00 0.00 0.00 0.00 0.00 0.00 0.00 0.00 0.00 0.00 0.00 0.00 0.00 0.00 0.00 0.00 0.00 0.00 0.00 0.01 0.02
0.28 0.27 0.23 0.17 0.14 0.15 0.14 0.11 0.08 0.06 0.03 0.02 0.01 0.01 0.00 0.00 0.00 0.00 0.00 0.00 0.00 0.00 0.00 0.00 0.00 0.00 0.00 0.00 0.00 0.00 0.00 0.00 0.00 0.00 0.00 0.00 0.00 0.00 0.00 0.00 0.00 0.00 0.01
0.38 0.36 0.33 0.28 0.24 0.25 0.24 0.19 0.13 0.09 0.06 0.05 0.03 0.02 0.01 0.00 0.00 0.00 0.00 0.00 0.00 0.00 0.00 0.00 0.00 0.00 0.00 0.00 0.00 0.00 0.00 0.00 0.00 0.00 0.00 0.00 0.00 0.00 0.00 0.00 0.00 0.00 0.00
0.43 0.42 0.37 0.34 0.33 0.31 0.26 0.23 0.19 0.15 0.13 0.11 0.09 0.06 0.04 0.02 0.02 0.01 0.01 0.01 0.01 0.01 0.00 0.00 0.00 0.00 0.00 0.00 0.00 0.00 0.00 0.00 0.00 0.00 0.00 0.00 0.00 0.00 0.00 0.00 0.00 0.00 0.00
0.33 0.40 0.42 0.39 0.34 0.30 0.26 0.27 0.27 0.27 0.25 0.22 0.16 0.10 0.09 0.07 0.06 0.05 0.06 0.04 0.02 0.01 0.01 0.01 0.01 0.00 0.01 0.01 0.01 0.01 0.01 0.00 0.00 0.00 0.00 0.00 0.00 0.00 0.00 0.00 0.00 0.00 0.00
0.18 0.28 0.37 0.41 0.42 0.38 0.36 0.38 0.34 0.29 0.23 0.19 0.16 0.14 0.13 0.12 0.12 0.12 0.10 0.08 0.06 0.05 0.04 0.03 0.03 0.03 0.03 0.02 0.03 0.03 0.02 0.01 0.00 0.00 0.00 0.00 0.00 0.00 0.00 0.00 0.00 0.00 0.00
0.09 0.14 0.22 0.32 0.40 0.42 0.49 0.45 0.40 0.33 0.26 0.22 0.23 0.25 0.24 0.22 0.18 0.14 0.11 0.10 0.09 0.08 0.06 0.06 0.06 0.05 0.04 0.03 0.03 0.03 0.03 0.02 0.02 0.01 0.00 0.00 0.00 0.00 0.00 0.00 0.00 0.00 0.00
0.07 0.09 0.11 0.16 0.26 0.33 0.35 0.35 0.37 0.35 0.30 0.28 0.26 0.22 0.20 0.18 0.15 0.12 0.10 0.09 0.10 0.09 0.08 0.08 0.07 0.06 0.05 0.03 0.03 0.02 0.01 0.01 0.01 0.01 0.01 0.00 0.00 0.00 0.00 0.00 0.00 0.00 0.00
0.03 0.05 0.07 0.09 0.12 0.16 0.19 0.24 0.26 0.27 0.27 0.25 0.23 0.20 0.19 0.16 0.14 0.13 0.12 0.11 0.11 0.10 0.10 0.09 0.07 0.06 0.05 0.03 0.03 0.02 0.01 0.01 0.01 0.01 0.01 0.00 0.00 0.00 0.00 0.00 0.00 0.00 0.00
MSLP
1012.60 1012.28 1012.21 1012.40 1012.79 1013.29 1013.77 1014.15 1014.38 1014.45 1014.42 1014.38 1014.39 1014.53 1014.81 1015.20 1015.66 1016.10 1016.48 1016.76 1016.95 1017.07 1017.16 1017.28 1017.44 1017.66 1017.90 1018.13 1018.32 1018.44 1018.48 1018.47 1018.42 1018.37 1018.35 1018.36 1018.39 1018.43 1018.45 1018.44 1018.39 1018.33 1018.26
1012.42 1012.18 1012.17 1012.41 1012.85 1013.37 1013.88 1014.28 1014.53 1014.62 1014.62 1014.60 1014.65 1014.83 1015.15 1015.58 1016.07 1016.54 1016.92 1017.20 1017.38 1017.48 1017.55 1017.65 1017.79 1017.98 1018.20 1018.41 1018.59 1018.69 1018.73 1018.71 1018.67 1018.64 1018.63 1018.65 1018.70 1018.75 1018.77 1018.76 1018.71 1018.64 1018.56
1012.16 1012.01 1012.08 1012.39 1012.88 1013.45 1014.00 1014.43 1014.71 1014.83 1014.86 1014.88 1014.96 1015.16 1015.50 1015.94 1016.43 1016.90 1017.29 1017.55 1017.72 1017.80 1017.86 1017.94 1018.06 1018.24 1018.44 1018.64 1018.81 1018.92 1018.96 1018.96 1018.94 1018.93 1018.95 1018.99 1019.04 1019.09 1019.12 1019.11 1019.05 1018.97 1018.88
1011.89 1011.83 1011.99 1012.37 1012.92 1013.54 1014.13 1014.60 1014.91 1015.07 1015.13 1015.17 1015.27 1015.48 1015.81 1016.24 1016.72 1017.16 1017.53 1017.79 1017.94 1018.02 1018.08 1018.16 1018.28 1018.45 1018.65 1018.85 1019.02 1019.14 1019.21 1019.23 1019.24 1019.25 1019.29 1019.34 1019.40 1019.45 1019.47 1019.45 1019.39 1019.30 1019.21
1011.68 1011.71 1011.95 1012.39 1012.99 1013.64 1014.26 1014.76 1015.10 1015.30 1015.39 1015.45 1015.56 1015.77 1016.08 1016.48 1016.92 1017.33 1017.68 1017.92 1018.07 1018.16 1018.23 1018.32 1018.45 1018.63 1018.84 1019.06 1019.24 1019.38 1019.48 1019.53 1019.56 1019.59 1019.63 1019.69 1019.74 1019.78 1019.79 1019.76 1019.70 1019.61 1019.53
1011.60 1011.71 1012.00 1012.48 1013.09 1013.76 1014.39 1014.91 1015.28 1015.50 1015.63 1015.72 1015.84 1016.04 1016.33 1016.69 1017.08 1017.46 1017.77 1018.00 1018.16 1018.26 1018.35 1018.47 1018.62 1018.82 1019.05 1019.28 1019.49 1019.65 1019.76 1019.84 1019.88 1019.92 1019.96 1020.01 1020.04 1020.06 1020.05 1020.01 1019.95 1019.88 1019.81
1011.69 1011.85 1012.17 1012.65 1013.25 1013.90 1014.51 1015.03 1015.42 1015.67 1015.83 1015.96 1016.10 1016.30 1016.58 1016.91 1017.26 1017.60 1017.89 1018.11 1018.26 1018.39 1018.50 1018.64 1018.82 1019.04 1019.29 1019.53 1019.75 1019.92 1020.05 1020.14 1020.19 1020.22 1020.25 1020.27 1020.28 1020.27 1020.25 1020.20 1020.15 1020.10 1020.05
1011.93 1012.12 1012.44 1012.90 1013.45 1014.05 1014.63 1015.13 1015.52 1015.81 1016.02 1016.19 1016.38 1016.60 1016.87 1017.18 1017.51 1017.81 1018.07 1018.27 1018.44 1018.57 1018.70 1018.87 1019.06 1019.29 1019.54 1019.78 1020.00 1020.18 1020.31 1020.39 1020.44 1020.46 1020.47 1020.46 1020.44 1020.41 1020.37 1020.32 1020.28 1020.26 1020.25
1012.27 1012.47 1012.77 1013.18 1013.67 1014.20 1014.71 1015.18 1015.58 1015.91 1016.18 1016.42 1016.66 1016.93 1017.22 1017.53 1017.83 1018.11 1018.34 1018.53 1018.68 1018.82 1018.96 1019.12 1019.32 1019.54 1019.78 1020.01 1020.22 1020.38 1020.50 1020.57 1020.61 1020.61 1020.60 1020.56 1020.52 1020.47 1020.42 1020.38 1020.36 1020.37 1020.40
1012.60 1012.82 1013.10 1013.45 1013.86 1014.31 1014.76 1015.20 1015.61 1015.98 1016.31 1016.63 1016.95 1017.27 1017.59 1017.90 1018.20 1018.45 1018.66 1018.83 1018.97 1019.10 1019.24 1019.39 1019.57 1019.77 1019.98 1020.18 1020.36 1020.50 1020.60 1020.66 1020.68 1020.67 1020.64 1020.59 1020.53 1020.47 1020.42 1020.39 1020.39 1020.42 1020.48
1012.85 1013.10 1013.36 1013.66 1014.00 1014.37 1014.77 1015.18 1015.60 1016.01 1016.41 1016.81 1017.20 1017.58 1017.94 1018.26 1018.55 1018.79 1018.98 1019.13 1019.26 1019.37 1019.49 1019.62 1019.78 1019.94 1020.11 1020.27 1020.42 1020.53 1020.60 1020.65 1020.66 1020.64 1020.60 1020.55 1020.48 1020.42 1020.37 1020.34 1020.35 1020.40 1020.48
1012.94 1013.22 1013.49 1013.76 1014.04 1014.36 1014.72 1015.11 1015.54 1015.99 1016.46 1016.93 1017.38 1017.81 1018.19 1018.53 1018.81 1019.04 1019.22 1019.36 1019.47 1019.58 1019.68 1019.79 1019.91 1020.04 1020.17 1020.28 1020.39 1020.47 1020.52 1020.55 1020.56 1020.54 1020.50 1020.44 1020.38 1020.31 1020.26 1020.23 1020.24 1020.30 1020.39
1012.84 1013.18 1013.47 1013.73 1013.99 1014.28 1014.62 1015.01 1015.45 1015.94 1016.45 1016.96 1017.46 1017.91 1018.31 1018.65 1018.93 1019.15 1019.33 1019.46 1019.58 1019.68 1019.78 1019.88 1019.97 1020.07 1020.15 1020.23 1020.29 1020.35 1020.38 1020.40 1020.40 1020.39 1020.35 1020.29 1020.22 1020.15 1020.09 1020.05 1020.05 1020.09 1020.18
1012.57 1012.97 1013.30 1013.58 1013.85 1014.14 1014.48 1014.87 1015.33 1015.84 1016.38 1016.92 1017.42 1017.88 1018.28 1018.61 1018.88 1019.10 1019.28 1019.43 1019.56 1019.68 1019.79 1019.89 1019.97 1020.04 1020.10 1020.14 1020.17 1020.20 1020.21 1020.22 1020.22 1020.20 1020.16 1020.10 1020.02 1019.93 1019.85 1019.80 1019.78 1019.80 1019.86
1012.18 1012.63 1013.01 1013.33 1013.63 1013.95 1014.31 1014.73 1015.21 1015.74 1016.28 1016.80 1017.29 1017.73 1018.10 1018.41 1018.67 1018.89 1019.08 1019.27 1019.43 1019.59 1019.73 1019.84 1019.93 1019.99 1020.02 1020.04 1020.05 1020.05 1020.05 1020.04 1020.03 1020.00 1019.95 1019.88 1019.78 1019.67 1019.57 1019.48 1019.43 1019.42 1019.45
1011.74 1012.24 1012.66 1013.03 1013.38 1013.75 1014.16 1014.61 1015.11 1015.63 1016.16 1016.66 1017.11 1017.50 1017.83 1018.10 1018.35 1018.57 1018.79 1019.02 1019.23 1019.44 1019.62 1019.76 1019.87 1019.93 1019.95 1019.95 1019.93 1019.92 1019.90 1019.88 1019.85 1019.81 1019.74 1019.64 1019.52 1019.38 1019.24 1019.12 1019.03 1019.00 1019.01
1011.33 1011.84 1012.30 1012.72 1013.13 1013.56 1014.01 1014.51 1015.03 1015.55 1016.06 1016.51 1016.90 1017.23 1017.51 1017.75 1017.97 1018.21 1018.46 1018.72 1019.00 1019.26 1019.48 1019.67 1019.79 1019.86 1019.88 1019.87 1019.85 1019.81 1019.78 1019.74 1019.70 1019.63 1019.53 1019.41 1019.25 1019.08 1018.91 1018.76 1018.65 1018.59 1018.59
1011.00 1011.49 1011.96 1012.42 1012.89 1013.38 1013.89 1014.43 1014.97 1015.49 1015.96 1016.37 1016.70 1016.97 1017.19 1017.39 1017.60 1017.84 1018.12 1018.43 1018.75 1019.06 1019.34 1019.55 1019.70 1019.79 1019.82 1019.80 1019.77 1019.73 1019.68 1019.63 1019.56 1019.48 1019.35 1019.20 1019.01 1018.82 1018.62 1018.46 1018.33 1018.27 1018.27
1010.75 1011.21 1011.68 1012.17 1012.67 1013.22 1013.78 1014.36 1014.92 1015.43 1015.87 1016.23 1016.50 1016.71 1016.89 1017.06 1017.25 1017.50 1017.80 1018.15 1018.51 1018.86 1019.17 1019.42 1019.60 1019.70 1019.73 1019.73 1019.70 1019.66 1019.61 1019.55 1019.47 1019.37 1019.23 1019.05 1018.85 1018.63 1018.43 1018.26 1018.14 1018.07 1018.08
1010.60 1011.00 1011.45 1011.94 1012.48 1013.05 1013.66 1014.26 1014.82 1015.33 1015.74 1016.06 1016.29 1016.45 1016.59 1016.74 1016.94 1017.19 1017.51 1017.88 1018.27 1018.65 1018.99 1019.26 1019.46 1019.58 1019.64 1019.65 1019.64 1019.61 1019.57 1019.51 1019.43 1019.32 1019.17 1018.99 1018.78 1018.57 1018.37 1018.21 1018.10 1018.05 1018.06
1010.51 1010.86 1011.27 1011.75 1012.29 1012.88 1013.49 1014.10 1014.66 1015.15 1015.54 1015.83 1016.03 1016.17 1016.29 1016.44 1016.63 1016.90 1017.24 1017.63 1018.04 1018.44 1018.80 1019.09 1019.30 1019.45 1019.53 1019.58 1019.59 1019.59 1019.57 1019.53 1019.46 1019.35 1019.21 1019.03 1018.83 1018.63 1018.45 1018.31 1018.23 1018.20 1018.22
1010.46 1010.76 1011.14 1011.59 1012.11 1012.68 1013.28 1013.87 1014.42 1014.88 1015.25 1015.51 1015.70 1015.84 1015.96 1016.12 1016.34 1016.63 1016.99 1017.39 1017.82 1018.23 1018.60 1018.91 1019.14 1019.32 1019.44 1019.52 1019.58 1019.61 1019.63 1019.61 1019.56 1019.47 1019.34 1019.18 1019.00 1018.82 1018.68 1018.57 1018.51 1018.49 1018.52
1010.47 1010.72 1011.05 1011.46 1011.94 1012.48 1013.03 1013.58 1014.09 1014.52 1014.86 1015.11 1015.30 1015.46 1015.61 1015.80 1016.05 1016.38 1016.76 1017.19 1017.62 1018.04 1018.43 1018.75 1019.02 1019.22 1019.39 1019.52 1019.62 1019.70 1019.75 1019.76 1019.74 1019.67 1019.55 1019.41 1019.26 1019.12 1019.00 1018.92 1018.89 1018.89 1018.91
1010.52 1010.75 1011.04 1011.40 1011.82 1012.29 1012.78 1013.27 1013.72 1014.11 1014.42 1014.67 1014.88 1015.06 1015.26 1015.51 1015.80 1016.17 1016.59 1017.03 1017.49 1017.92 1018.31 1018.66 1018.95 1019.19 1019.40 1019.57 1019.72 1019.84 1019.93 1019.97 1019.96 1019.90 1019.81 1019.69 1019.56 1019.45 1019.37 1019.33 1019.31 1019.33 1019.34
1010.66 1010.87 1011.12 1011.43 1011.78 1012.17 1012.58 1012.99 1013.37 1013.71 1014.00 1014.25 1014.48 1014.71 1014.97 1015.27 1015.63 1016.04 1016.50 1016.97 1017.44 1017.88 1018.28 1018.64 1018.96 1019.23 1019.48 1019.69 1019.88 1020.03 1020.13 1020.19 1020.20 1020.15 1020.06 1019.96 1019.85 1019.77 1019.72 1019.70 1019.71 1019.73 1019.74
1010.90 1011.10 1011.32 1011.56 1011.84 1012.14 1012.46 1012.79 1013.10 1013.39 1013.66 1013.91 1014.17 1014.45 1014.77 1015.14 1015.56 1016.02 1016.51 1017.00 1017.48 1017.93 1018.34 1018.71 1019.04 1019.34 1019.61 1019.85 1020.05 1020.22 1020.34 1020.40 1020.40 1020.35 1020.26 1020.17 1020.08 1020.02 1020.00 1020.00 1020.03 1020.06 1020.06
Thickness
5757 5759 5758 5755 5753 5752 5751 5750 5750 5749 5749 5748 5747 5746 5745 5743 5741 5739 5737 5735 5734 5732 5731 5729 5728 5726 5725 5723 5722 5721 5720 5719 5719 5718 5717 5717 5716 5715 5714 5713 5712 5711 5711
5759 5757 5755 5753 5751 5749 5748 5747 5746 5746 5745 5745 5744 5743 5742 5740 5738 5736 5735 5733 5731 5729 5728 5726 5725 5723 5722 5720 5719 5718 5717 5716 5715 5715 5714 5714 5713 5712 5711 5710 5709 5708 5707
5756 5754 5752 5749 5747 5746 5745 5744 5743 5742 5742 5742 5741 5740 5738 5737 5735 5733 5731 5730 5728 5727 5725 5723 5721 5720 5719 5717 5716 5715 5714 5713 5712 5712 5711 5711 5710 5709 5708 5707 5706 5705 5704
5751 5749 5747 5746 5744 5742 5741 5740 5739 5739 5738 5738 5737 5736 5735 5733 5731 5729 5728 5726 5725 5723 5722 5720 5718 5717 5716 5715 5714 5713 5711 5710 5709 5709 5708 5708 5707 5706 5705 5704 5703 5702 5701
5745 5744 5743 5741 5740 5739 5737 5736 5735 5735 5735 5734 5733 5732 5731 5729 5727 5726 5724 5723 5721 5719 5718 5716 5715 5714 5713 5712 5711 5710 5709 5708 5706 5706 5705 5705 5704 5703 5702 5701 5700 5698 5697
5737 5738 5737 5736 5735 5734 5733 5732 5731 5731 5730 5730 5729 5728 5727 5725 5723 5721 5720 5719 5717 5716 5714 5713 5712 5711 5710 5709 5708 5707 5706 5704 5703 5703 5702 5701 5701 5700 5699 5697 5696 5695 5693
5730 5731 5731 5731 5730 5729 5729 5728 5727 5726 5726 5725 5725 5723 5722 5721 5719 5717 5716 5715 5714 5713 5711 5710 5708 5707 5706 5706 5705 5703 5702 5701 5700 5699 5699 5698 5697 5697 5695 5694 5692 5691 5690
5723 5724 5725 5725 5725 5724 5724 5723 5723 5722 5721 5720 5720 5719 5718 5717 5715 5713 5712 5711 5710 5709 5708 5707 5705 5704 5703 5702 5701 5700 5699 5698 5697 5696 5696 5695 5694 5693 5692 5690 5689 5687 5686
5715 5717 5718 5718 5719 5719 5719 5718 5718 5717 5716 5716 5715 5714 5713 5712 5711 5709 5708 5708 5707 5705 5704 5703 5702 5701 5700 5699 5698 5697 5696 5695 5694 5693 5693 5692 5691 5690 5689 5687 5686 5684 5682
5707 5710 5711 5712 5713 5713 5714 5713 5713 5712 5711 5711 5710 5709 5708 5707 5706 5705 5704 5704 5703 5702 5701 5700 5699 5698 5697 5696 5695 5694 5693 5693 5692 5691 5690 5689 5688 5687 5686 5684 5682 5680 5678
5697 5701 5705 5706 5706 5707 5708 5708 5708 5707 5707 5706 5705 5704 5703 5702 5702 5701 5700 5700 5699 5698 5697 5696 5695 5694 5694 5693 5692 5691 5691 5690 5689 5688 5688 5687 5686 5685 5683 5681 5679 5677 5675
5690 5694 5699 5700 5701 5702 5703 5703 5703 5702 5702 5701 5701 5700 5698 5698 5697 5697 5696 5695 5695 5694 5693 5692 5692 5691 5690 5690 5689 5689 5688 5687 5686 5686 5685 5684 5683 5682 5681 5679 5677 5674 5672
5688 5690 5692 5695 5696 5697 5697 5697 5698 5697 5697 5696 5696 5695 5694 5693 5693 5692 5691 5691 5691 5690 5690 5689 5688 5688 5687 5686 5686 5685 5685 5684 5683 5683 5683 5682 5681 5680 5679 5677 5674 5672 5669
5684 5685 5687 5689 5690 5691 5692 5693 5693 5693 5692 5692 5692 5691 5690 5689 5688 5688 5687 5687 5686 5686 5686 5685 5685 5684 5684 5683 5683 5682 5682 5681 5681 5680 5680 5679 5678 5677 5676 5674 5672 5670 5667
5682 5682 5684 5684 5685 5686 5687 5688 5688 5689 5689 5688 5688 5687 5686 5686 5685 5684 5684 5683 5682 5682 5682 5681 5681 5680 5680 5680 5679 5679 5679 5678 5678 5677 5677 5676 5675 5674 5673 5671 5669 5667 5665
5681 5681 5681 5680 5682 5682 5683 5683 5684 5685 5685 5684 5684 5684 5683 5683 5682 5681 5680 5680 5679 5679 5678 5677 5677 5676 5676 5675 5675 5675 5675 5675 5674 5674 5673 5673 5672 5671 5670 5668 5666 5664 5662
5677 5679 5680 5680 5680 5680 5680 5680 5680 5681 5681 5681 5681 5681 5680 5680 5679 5678 5677 5676 5676 5675 5674 5673 5672 5672 5671 5671 5671 5671 5671 5670 5670 5670 5670 5669 5669 5667 5666 5664 5662 5660 5658
5674 5675 5678 5678 5678 5677 5677 5677 5677 5676 5677 5678 5678 5678 5677 5677 5676 5675 5674 5674 5673 5672 5670 5669 5668 5667 5666 5666 5666 5666 5666 5666 5666 5666 5666 5665 5664 5663 5662 5660 5658 5656 5653
5670 5673 5673 5675 5675 5675 5674 5674 5673 5673 5673 5674 5674 5674 5674 5673 5673 5671 5670 5670 5669 5668 5666 5665 5663 5662 5661 5661 5661 5661 5661 5661 5661 5661 5661 5660 5659 5658 5657 5655 5653 5650 5647
5665 5669 5670 5671 5672 5672 5670 5669 5668 5668 5669 5670 5670 5671 5671 5670 5669 5668 5667 5666 5665 5663 5661 5659 5658 5657 5656 5655 5655 5656 5656 5657 5656 5656 5655 5654 5653 5652 5651 5649 5646 5643 5640
5658 5662 5664 5665 5667 5667 5665 5664 5664 5664 5665 5666 5667 5668 5667 5667 5666 5664 5663 5661 5659 5658 5656 5654 5652 5651 5649 5648 5648 5648 5650 5650 5649 5648 5647 5646 5645 5644 5642 5640 5638 5635 5632
5652 5656 5659 5661 5663 5663 5663 5663 5663 5663 5662 5663 5663 5663 5663 5662 5661 5660 5658 5656 5654 5652 5650 5648 5647 5644 5642 5641 5640 5638 5638 5639 5640 5640 5638 5636 5635 5634 5632 5630 5627 5625 5622
5646 5650 5654 5656 5657 5658 5658 5658 5657 5656 5656 5656 5656 5657 5657 5657 5656 5655 5653 5651 5649 5646 5644 5642 5640 5638 5635 5633 5631 5629 5626 5627 5628 5630 5628 5625 5623 5622 5620 5618 5616 5614 5612
5642 5645 5649 5651 5653 5653 5653 5653 5652 5651 5650 5652 5652 5651 5651 5650 5650 5649 5647 5645 5643 5641 5639 5636 5634 5631 5628 5625 5623 5621 5619 5618 5617 5619 5618 5615 5613 5611 5609 5607 5605 5603 5601
5638 5641 5643 5645 5647 5647 5647 5648 5647 5647 5646 5645 5645 5643 5642 5642 5641 5641 5639 5638 5636 5633 5631 5629 5626 5623 5621 5618 5615 5612 5610 5608 5607 5606 5608 5606 5602 5599 5597 5596 5593 5591 5589
5632 5634 5636 5638 5639 5641 5642 5643 5642 5642 5640 5639 5638 5637 5634 5633 5632 5631 5631 5629 5627 5625 5623 5620 5617 5614 5611 5609 5606 5604 5601 5599 5598 5596 5596 5596 5593 5589 5586 5583 5581 5579 5577